DW4047 Weather Reports


time (UTC)temp
C
wind
direction
speed
KPH
gust
KPH
rain 1hr
cm
rain 24hr
cm
rain mn
cm
humidity
%
barometer
mb
20260504100304 8 169 1.6 8.0 0.00 0.00 0.00 57 984.3
20260504081802 7 239 0.0 0.0 0.00 0.00 0.00 57 984.7
20260504081302 7 239 0.0 0.0 0.00 0.00 0.00 57 984.7
20260504080807 7 239 0.0 0.0 0.00 0.00 0.00 57 984.7
20260504080300 7 239 0.0 0.0 0.00 0.00 0.00 57 984.8
20260504070303 7 294 0.0 0.0 0.00 0.00 0.00 57 984.7
20260504050731 7 294 0.0 0.0 0.00 0.00 0.00 58 985.5
20260504045219 7 294 0.0 0.0 0.00 0.00 0.00 57 985.5
20260504044710 7 294 0.0 0.0 0.00 0.00 0.00 58 985.5
20260504043707 7 294 0.0 0.0 0.00 0.00 0.00 55 985.4
20260504043205 7 294 0.0 0.0 0.00 0.00 0.00 56 985.5
20260504042705 7 294 0.0 0.0 0.00 0.00 0.00 57 985.4
20260504042204 8 294 0.0 0.0 0.00 0.00 0.00 58 985.5
20260504041706 8 294 0.0 0.0 0.00 0.00 0.00 56 985.4
20260504041200 8 294 0.0 0.0 0.00 0.00 0.00 54 985.3
20260504040201 7 294 0.0 0.0 0.00 0.00 0.00 54 985.2
20260504035201 7 294 0.0 0.0 0.00 0.00 0.00 54 985.2
20260504034702 7 294 0.0 0.0 0.00 0.00 0.00 54 985.1
20260504034202 7 294 0.0 0.0 0.00 0.00 0.00 54 985.0
20260504033707 7 294 0.0 0.0 0.00 0.00 0.00 56 985.1
20260504033202 7 294 0.0 0.0 0.00 0.00 0.00 56 985.0
20260504032706 7 294 0.0 0.0 0.00 0.00 0.00 56 985.0
20260504032204 7 294 0.0 0.0 0.00 0.00 0.00 55 984.9
20260504031703 7 294 0.0 0.0 0.00 0.00 0.00 54 985.1
20260504031204 7 294 0.0 0.0 0.00 0.00 0.00 55 985.1
20260504030203 7 294 0.0 0.0 0.00 0.00 0.00 55 984.9
20260504025706 7 294 0.0 0.0 0.00 0.00 0.00 55 984.9
20260504025202 7 294 0.0 0.0 0.00 0.00 0.00 55 984.9
20260504024705 8 294 0.0 0.0 0.00 0.00 0.00 55 985.0
20260504023703 8 294 0.0 0.0 0.00 0.00 0.00 54 985.0
20260504023203 8 294 0.0 0.0 0.00 0.00 0.00 55 985.0
20260504022706 8 294 0.0 0.0 0.00 0.00 0.00 55 984.9
20260504022204 8 294 0.0 0.0 0.00 0.00 0.00 55 984.9
20260504021703 8 294 0.0 0.0 0.00 0.00 0.00 54 984.9
20260504021202 8 294 0.0 0.0 0.00 0.00 0.00 55 984.9
20260504020703 8 294 0.0 0.0 0.00 0.00 0.00 56 984.9
20260504020209 8 294 0.0 0.0 0.00 0.00 0.00 55 984.9
20260504015703 8 294 0.0 0.0 0.00 0.00 0.00 54 984.9
20260504015204 8 294 0.0 0.0 0.00 0.00 0.00 53 984.8
20260504014704 8 294 0.0 0.0 0.00 0.00 0.00 53 984.8
20260504013703 8 294 0.0 0.0 0.00 0.00 0.00 54 984.9
20260504013203 9 294 0.0 0.0 0.00 0.00 0.00 54 984.9
20260504012702 9 294 0.0 0.0 0.00 0.00 0.00 53 984.9
20260504011652 10 294 0.0 0.0 0.00 0.00 0.00 49 984.6
20260504011142 10 294 0.0 0.0 0.00 0.00 0.00 50 984.7
20260504010642 10 294 0.0 0.0 0.00 0.00 0.00 50 984.7
20260504010135 10 294 0.0 0.0 0.00 0.00 0.00 50 984.6
20260504005632 10 294 0.0 0.0 0.00 0.00 0.00 50 984.6
20260504004129 11 294 0.0 0.0 0.00 0.00 0.00 47 984.5
20260504003629 11 294 0.0 0.0 0.00 0.00 0.00 46 984.4
20260504003132 11 294 0.0 0.0 0.00 0.00 0.00 46 984.4
20260504002628 11 294 0.0 0.0 0.00 0.00 0.00 46 984.3
20260504002132 11 294 0.0 0.0 0.00 0.00 0.00 45 984.3
20260504001631 12 294 0.0 0.0 0.00 0.00 0.00 45 984.3
20260504001133 12 294 0.0 0.0 0.00 0.00 0.00 45 984.3
20260504000630 12 294 0.0 0.0 0.00 0.00 0.00 45 984.3
20260504000131 12 294 0.0 0.0 0.00 0.00 0.00 44 984.3
20260503235130 13 294 0.0 0.0 0.00 0.00 0.00 42 984.2
20260503234629 13 294 0.0 0.0 0.00 0.00 0.00 41 984.2
20260503234131 13 294 0.0 0.0 0.00 0.00 0.00 41 984.1
20260503233632 13 294 0.0 0.0 0.00 0.00 0.00 40 984.1
20260503232629 13 294 0.0 4.8 0.00 0.00 0.00 40 984.1
20260503232129 13 298 1.6 3.2 0.00 0.00 0.00 40 984.0
20260503230619 14 347 1.6 11.3 0.00 0.00 0.00 39 983.8
20260503230116 14 330 3.2 11.3 0.00 0.00 0.00 39 983.9
20260503225611 14 339 3.2 8.0 0.00 0.00 0.00 38 983.8
20260503225103 14 307 1.6 8.0 0.00 0.00 0.00 39 983.9
20260503224602 14 269 1.6 4.8 0.00 0.00 0.00 39 983.9
20260503224103 14 315 1.6 6.4 0.00 0.00 0.00 39 984.0
20260503223558 15 321 1.6 6.4 0.00 0.00 0.00 38 984.0
20260503222548 15 328 3.2 9.7 0.00 0.00 0.00 37 984.0
20260503222041 15 340 1.6 9.7 0.00 0.00 0.00 39 984.0
20260503221541 15 344 3.2 14.5 0.00 0.00 0.00 36 984.0
20260503221037 15 336 1.6 14.5 0.00 0.00 0.00 36 984.1
20260503220539 15 313 3.2 8.0 0.00 0.00 0.00 36 984.0
20260503220040 15 275 1.6 6.4 0.00 0.00 0.00 36 984.1
20260503215534 15 113 3.2 6.4 0.00 0.00 0.00 36 984.0
20260503215032 15 69 1.6 4.8 0.00 0.00 0.00 36 984.1
20260503213029 15 46 3.2 8.0 0.00 0.00 0.00 37 984.1
20260503212531 15 304 1.6 6.4 0.00 0.00 0.00 36 984.0
20260503212031 15 338 0.0 6.4 0.00 0.00 0.00 37 984.0
20260503211530 15 338 1.6 8.0 0.00 0.00 0.00 35 984.1
20260503211028 16 322 1.6 9.7 0.00 0.00 0.00 34 983.9
20260503210527 16 297 3.2 9.7 0.00 0.00 0.00 35 984.0
20260503210028 16 300 1.6 4.8 0.00 0.00 0.00 35 984.0
20260503205523 16 333 1.6 8.0 0.00 0.00 0.00 35 983.9
20260503205026 16 321 3.2 16.1 0.00 0.00 0.00 35 984.0
20260503204518 16 302 3.2 16.1 0.00 0.00 0.00 34 984.0
20260503204024 16 342 1.6 4.8 0.00 0.00 0.00 36 983.9
20260503203521 16 5 1.6 4.8 0.00 0.00 0.00 35 983.9
20260503203019 16 294 3.2 16.1 0.00 0.00 0.00 35 983.9
20260503202507 17 300 3.2 16.1 0.00 0.00 0.00 35 984.0
20260503202005 17 262 3.2 20.9 0.00 0.00 0.00 35 984.0
20260503201503 17 324 3.2 20.9 0.00 0.00 0.00 37 984.1
20260503200502 17 93 8.0 16.1 0.00 0.00 0.00 33 984.2
20260503200000 17 265 3.2 16.1 0.00 0.00 0.00 35 984.1
20260503195502 17 9 1.6 17.7 0.00 0.00 0.00 34 984.2
20260503195001 17 259 3.2 17.7 0.00 0.00 0.00 35 984.2
20260503194501 17 289 1.6 12.9 0.00 0.00 0.00 39 984.5
20260503194002 17 321 3.2 12.9 0.00 0.00 0.00 35 984.3
20260503193502 17 286 1.6 6.4 0.00 0.00 0.00 36 984.5
20260503192502 16 315 3.2 16.1 0.00 0.00 0.00 36 984.7
20260503192003 16 349 4.8 16.1 0.00 0.00 0.00 36 984.8
20260503191501 16 5 3.2 9.7 0.00 0.00 0.00 41 984.7
20260503190500 16 182 1.6 12.9 0.00 0.00 0.00 41 984.6
20260503190000 16 161 3.2 12.9 0.00 0.00 0.00 39 984.7
20260503185001 16 352 4.8 16.1 0.00 0.00 0.00 36 984.9
20260503184456 16 294 1.6 6.4 0.00 0.00 0.00 42 985.0
20260503183452 16 53 1.6 12.9 0.00 0.00 0.00 40 985.0
20260503182953 16 348 4.8 12.9 0.00 0.00 0.00 37 985.1
20260503182446 16 310 1.6 8.0 0.00 0.00 0.00 40 985.1
20260503181946 16 344 1.6 6.4 0.00 0.00 0.00 43 985.1
20260503180932 16 290 1.6 6.4 0.00 0.00 0.00 42 985.2
20260503180432 16 271 1.6 19.3 0.00 0.00 0.00 44 985.3
20260503175930 15 325 4.8 24.1 0.00 0.00 0.00 41 985.2
20260503175430 15 315 8.0 24.1 0.00 0.00 0.00 39 985.3
20260503174930 15 260 3.2 16.1 0.00 0.00 0.00 41 985.2
20260503173928 14 345 4.8 16.1 0.00 0.00 0.00 45 985.3
20260503173429 13 322 4.8 16.1 0.00 0.00 0.00 43 985.4
20260503172930 14 279 3.2 17.7 0.00 0.00 0.00 42 985.4
20260503172430 14 285 4.8 19.3 0.00 0.00 0.00 42 985.5
20260503171930 14 342 6.4 19.3 0.00 0.00 0.00 41 985.5
20260503171429 13 297 3.2 8.0 0.00 0.00 0.00 44 985.7
20260503170430 13 319 4.8 16.1 0.00 0.00 0.00 43 985.7
20260503150911 11 315 1.6 12.9 0.00 0.00 0.00 49 986.5
20260503130400 9 352 3.2 20.9 0.00 0.00 0.00 53 986.2
20260503110329 2 328 1.6 6.4 0.00 0.00 0.00 27 985.1